Regional Weather Roundup
Issued by NWS

Home | Current Version | Previous Version | Text Only | Print | Product List | Glossary Off
Versions: 1 2 3 4 5 6 7 8 9 10 11 12 13 14 15 16 17 18 19 20 21 22 23 24 25 26 27 28 29 30 31 32 33 34 35 36 37 38 39 40 41 42 43 44 45 46 47 48 49 50

000
ASUS43 KIND 291259
RWRIN

WEATHER ROUNDUP FOR INDIANA
NATIONAL WEATHER SERVICE INDIANAPOLIS IN
800 AM EST MON DEC 29 2014

NOTE: "FAIR" INDICATES FEW OR NO CLOUDS BELOW 12,000 FEET WITH NO
SIGNIFICANT WEATHER AND/OR OBSTRUCTIONS TO VISIBILITY.

* - STATION DOES NOT REPORT WEATHER SUCH AS PRECIPITATION OR FOG.

+ - STATION NOT QUALITY CONTROLLED BY THE NATIONAL WEATHER SERVICE.
    USE DATA WITH CAUTION...ESPECIALLY DEWPOINT AND RELATIVE
    HUMIDITY OBSERVATIONS.

INZ001>003-010>013-019-020-291400-
NORTHWEST INDIANA

CITY           SKY/WX    TMP DP  RH WIND       PRES   REMARKS
GARY /AIRPORT/ CLOUDY    34  21  60 NW8       30.31R WCI  27
KNOX *+        PTCLDY    19  15  83 CALM      30.28R
VALPARAISO     NOT AVBL

$$

LMZ046-743>745-291400-
SOUTHERN LAKE MICHIGAN

STATION/POSITION TIME  TEMP WIND        PRES
                       AIR  DIR/SP/G
                 (UTC) (F)  (DEG/KT/KT) (MB)
MICHIGAN CITY    1200   33  360/ 14/ 16   N/A

$$

INZ004-005-014>016-021>024-291400-
NORTH CENTRAL INDIANA

CITY           SKY/WX    TMP DP  RH WIND       PRES   REMARKS
ELKHART        PTCLDY    25  21  86 CALM      30.29R
GOSHEN         CLOUDY    26  24  92 CALM      30.27R
SOUTH BEND     CLOUDY    25  21  85 CALM      30.29R
WARSAW +       CLOUDY    23  21  93 CALM      30.28R FOG

$$

INZ006>009-017-018-025>027-291400-
NORTHEAST INDIANA

CITY           SKY/WX    TMP DP  RH WIND       PRES   REMARKS
ANGOLA *+      CLEAR     19  18  93 CALM      30.26R
FORT WAYNE     MOCLDY    25  22  88 CALM      30.29R

$$

INZ028-029-035-036-043>045-051>053-291400-
WEST CENTRAL INDIANA

CITY           SKY/WX    TMP DP  RH WIND       PRES   REMARKS
GREENCASTLE +  CLEAR     21  18  86 N3        30.28R
LAFAYETTE      CLEAR     18  15  88 CALM      30.30R
TERRE HAUTE    CLEAR     21  19  92 N3        30.29R

$$

INZ030>032-037>040-046>048-054>057-064-065-291400-
CENTRAL INDIANA

CITY           SKY/WX    TMP DP  RH WIND       PRES   REMARKS
CP ATTERBURY + CLEAR     19  19 100 MISG      30.28R
COLUMBUS       PTCLDY    25  21  86 N5        30.27R WCI  19
INDIANAPOLIS   PTCLDY    20  18  92 N5        30.27R WCI  13
-EAGLE CREEK   CLEAR     21  18  88 N3        30.27R
KOKOMO *+      CLEAR     19  18  93 CALM      30.28R
MT COMFORT *+  CLEAR     19 N/A N/A CALM      30.28R
SHELBYVILLE    CLEAR     23  20  88 N3        30.27R

$$

INZ033-034-041-042-049-050-058-059-291400-
EAST CENTRAL INDIANA

CITY           SKY/WX    TMP DP  RH WIND       PRES   REMARKS
MUNCIE         CLEAR     21  18  88 CALM      30.27R FOG

$$

INZ060-061-067>069-081>083-085>088-291400-
SOUTHWEST INDIANA

CITY           SKY/WX    TMP DP  RH WIND       PRES   REMARKS
EVANSVILLE     CLOUDY    32  25  75 N8        30.26R WCI  25
HUNTINGBURG *+ CLOUDY    32  25  74 NE6       30.25R WCI  26

$$

INZ062-063-066-070>080-084-089>092-291400-
SOUTH CENTRAL AND SOUTHEAST INDIANA

CITY           SKY/WX    TMP DP  RH WIND       PRES   REMARKS
BLOOMINGTON    CLEAR     23  21  92 NE8       30.25R WCI  14
SEYMOUR +      CLOUDY    30  27  86 NE6       30.26  WCI  24

$$




USA.gov is the U.S. government's official web portal to all federal, state and local government web resources and services.